Regional Weather Roundup
Issued by NWS

Home | Current Version | Previous Version | Text Only | Print | Product List | Glossary On
Versions: 1 2 3 4 5 6 7 8 9 10 11 12 13 14 15 16 17 18 19 20 21 22 23 24 25 26 27 28 29 30 31 32 33 34 35 36 37 38 39 40 41 42 43 44 45 46 47 48 49 50
000
ASUS44 KBMX 291110
RWRAL

ALABAMA REGIONAL WEATHER ROUNDUP
NATIONAL WEATHER SERVICE BIRMINGHAM AL
600 AM CDT SUN MAR 29 2015

NOTE: "FAIR" INDICATES FEW OR NO CLOUDS BELOW 12,000 FEET
WITH NO SIGNIFICANT WEATHER AND/OR OBSTRUCTIONS TO VISIBILITY.

THE REMARK "TC" DENOTES TEMPERATURE IN DEGREES CELSIUS.

ALZ001>011-014-016>018-020-291200-
NORTH ALABAMA

CITY           SKY/WX    TMP DP  RH WIND       PRES   REMARKS
MUSCLE SHOALS  CLEAR     29  22  75 SE3       30.33R
HUNTSVILLE     CLEAR     30  22  72 E8        30.31F WCI  22
DECATUR        CLEAR     27  23  85 SE3       30.33R
HALEYVILLE       N/A     32  16  52 CALM      30.33R
GADSDEN        CLEAR     25  19  80 W6        30.34R WCI  18
$$

ALZ012-013-022-023-030>036-040>044-291200-
WEST CENTRAL ALABAMA

CITY           SKY/WX    TMP DP  RH WIND       PRES   REMARKS
TUSCALOOSA     CLOUDY    45  29  53 E5        30.34R
$$

ALZ015-024>027-033>036-040>044-291200-
CENTRAL ALABAMA

CITY           SKY/WX    TMP DP  RH WIND       PRES   REMARKS
BIRMINGHAM     PTCLDY    38  15  39 E6        30.35R WCI  33
MONTGOMERY     MOCLDY    44  26  49 E5        30.36R
SHELBY CO ARPT CLOUDY    41  22  46 E5        30.34R
MAXWELL AFB    MOCLDY    46  22  39 E7        30.35R
GREENVILLE     CLOUDY    44  34  67 NE3       30.33
$$

ALZ019-021-028-029-037-038-045>048-291200-
EAST CENTRAL ALABAMA

CITY           SKY/WX    TMP DP  RH WIND       PRES   REMARKS
ANNISTON       CLEAR     28  24  85 CALM      30.36R
ALEXANDER CITY CLOUDY    40  20  43 CALM      30.34S
AUBURN         CLOUDY    37  16  41 NE9       30.36R WCI  31
$$

ALZ051>064-291200-
SOUTHWEST ALABAMA

CITY           SKY/WX    TMP DP  RH WIND       PRES   REMARKS
MOBILE         CLEAR     41  34  76 E6        30.31R
BROOKLEY FIELD CLEAR     47  33  58 NE8       30.33R
EVERGREEN      CLEAR     37  34  89 CALM      30.34R
$$

ALZ049-050-065>069-291200-
SOUTHEAST ALABAMA

CITY           SKY/WX    TMP DP  RH WIND       PRES   REMARKS
DOTHAN         CLOUDY    44  36  73 NE3       30.37R
OZARK          CLOUDY    44  33  65 NE5       30.34R
TROY           MOCLDY    43  34  70 CALM      30.35R
EUFAULA        CLOUDY    44  23  43 VRB3      30.35R
$$


USA.gov is the U.S. government's official web portal to all federal, state and local government web resources and services.